Regional Weather Roundup
Issued by NWS

Home | Current Version | Previous Version | Graphics & Text | Print | Product List | Glossary On
Versions: 1 2 3 4 5 6 7 8 9 10 11 12 13 14 15 16 17 18 19 20 21 22 23 24 25 26 27 28 29 30 31 32 33 34 35 36 37 38 39 40 41 42 43 44 45 46 47 48 49 50
000
ASUS43 KMKX 230400
RWRWI

WISCONSIN REGIONAL WEATHER ROUNDUP
NATIONAL WEATHER SERVICE MILWAUKEE/SULLIVAN WI
1100 PM CDT TUE MAY 22 2018

NOTE: "FAIR" INDICATES FEW OR NO CLOUDS BELOW 12,000 FEET WITH NO
SIGNIFICANT WEATHER AND/OR OBSTRUCTIONS TO VISIBILITY.

WIZ001-002-006>008-014>016-023>028-230500-
NORTHWEST WISCONSIN

CITY           SKY/WX    TMP DP  RH WIND       PRES   REMARKS
SUPERIOR ARPT  FAIR      64  55  71 SW3       30.04R
ASHLAND        FAIR      59  53  80 SW7       30.05R
HAYWARD        FAIR      56  54  93 CALM      30.07S
SIREN          FAIR      57  55  94 CALM      30.07R
CUMBERLAND     FAIR      55  52  88 CALM      30.08R
RICE LAKE      FAIR      58  56  91 CALM      30.09R
CHETEK         FAIR      57  56  95 E6        30.08R
LADYSMITH      FAIR      57  53  86 CALM      30.10S
EAU CLAIRE     NOT AVBL
MENOMONIE      FAIR      60  56  85 CALM      30.08R
NEW RICHMOND   FAIR      60  54  79 SE3       30.07S
OSCEOLA        FAIR      58  54  86 CALM      30.09R
$$

WIZ003>005-009-010-017-018-230500-
NORTH CENTRAL WISCONSIN

CITY           SKY/WX    TMP DP  RH WIND       PRES   REMARKS
MANITOWISH WTR FAIR      53  53 100 CALM      30.08R
ARBOR VITAE    FAIR      59  55  84 CALM      30.08R
WOODRUFF       FAIR      59  55  84 CALM      30.08R
RHINELANDER    FAIR      60  55  83 W7        30.08R
EAGLE RIVER    FAIR      55  48  76 CALM      30.07R
LAND O LAKES   FAIR      51  44  76 CALM      30.09R
PHILLIPS       FAIR      60  56  87 CALM      30.08S
TOMAHAWK       FAIR      61  54  77 W3        30.09R
MEDFORD        FAIR      60  55  83 CALM      30.09R
MERRILL        FAIR      59  57  92 W5        30.08S
$$

WIZ029-030-035-036-043>047-230500-
CENTRAL WISCONSIN

CITY           SKY/WX    TMP DP  RH WIND       PRES   REMARKS
WAUSAU         FAIR      62  58  86 NW3       30.07R
MOSINEE        FAIR      59  55  88 W6        30.10R
MARSHFIELD     FAIR      56  55  97 W5        30.08S
STEVENS POINT  FAIR      60  58  92 W5        30.09R
WAUPACA        FAIR      63  58  83 SW3       30.08S
WAUTOMA        FAIR      59  57  93 W5        30.10R
WISC RAPIDS    FAIR      57  55  93 CALM      30.10R
CAMP DOUGLAS   FOG       52  52 100 CALM      30.09S VSB 3/8
$$

WIZ011>013-019>022-031-037>040-048>050-230500-
NORTHEAST WISCONSIN

CITY           SKY/WX    TMP DP  RH WIND       PRES   REMARKS
ANTIGO         FAIR      61  57  88 W8        30.08R
SHAWANO        FAIR      67  57  72 SW5       30.06R
OCONTO         FAIR      61  56  86 CALM      30.04R
STURGEON BAY   FAIR      60  52  74 S7        30.05S
GREEN BAY      FAIR      63  58  83 S3        30.06R
MANITOWOC      FAIR      51  48  89 CALM      30.08R
APPLETON       PTCLDY    63  55  77 W8        30.06R
CLINTONVILLE   FAIR      65  56  73 W3        30.06R
OSHKOSH        FAIR      62  57  83 SW5       30.08R
$$

WIZ032>034-041-042-053>061-230500-
SOUTHWEST WISCONSIN

CITY           SKY/WX    TMP DP  RH WIND       PRES   REMARKS
LA CROSSE      FAIR      60  57  89 SE6       30.08S
SPARTA         FAIR      55  55  99 CALM      30.10S
VIROQUA        FAIR      57  57 100 E5        30.11R
BOSCOBEL       FOG       56  55  97 CALM      30.10S VSB 3/4
PRAIRIE DU CHI FAIR      62  59  90 CALM      30.09R
PLATTEVILLE    FAIR      60  60 100 E7        30.11R
$$

WIZ056-057-062-063-064-067-068-230500-
SOUTH CENTRAL WISCONSIN

CITY           SKY/WX    TMP DP  RH WIND       PRES   REMARKS
REEDSBURG      FAIR      59  59 100 CALM      30.10S
BARABOO/DELLS  FAIR      57  55  93 CALM      30.11R
LONE ROCK      NOT AVBL
MINERAL POINT  FAIR      61  61 100 E6        30.11S
MADISON        FAIR      59  57  93 W5        30.09S
MIDDLETON      FAIR      58  58 100 CALM      30.11R
WATERTOWN      FAIR      54  54 100 CALM      30.10R
MONROE         FAIR      61  55  82 N5        30.11R
JANESVILLE     FAIR      59  59 100 CALM      30.10S
$$

WIZ051-052-058>065-066-070>072-230500-
SOUTHEAST WISCONSIN

CITY           SKY/WX    TMP DP  RH WIND       PRES   REMARKS
MILWAUKEE      FAIR      56  53  90 W3        30.09S
WAUKESHA       FAIR      54  52  94 CALM      30.11R
MILWAUKEE/TIMM FAIR      55  52  88 CALM      30.10S
RACINE         FAIR      50  49  96 CALM      30.11S
BURLINGTON     FAIR      55  55  97 CALM      30.10S FOG
KENOSHA        FAIR      52  49  89 CALM      30.10R
FOND DU LAC    FAIR      61  56  83 SW6       30.09R
SHEBOYGAN      FAIR      56  54  93 SW3       30.08R
WEST BEND      FAIR      55  55 100 CALM      30.10R
JUNEAU         FAIR      58  56  95 CALM      30.11R
$$

LSZ147-162-230500-
LAKE SUPERIOR

STATION/POSITION TIME  TEMP    WIND        PRES    WAVE
                       AIR SEA DIR/SP/G            HT/PER
                 (UTC) (F)     (DEG/KT/KT) (MB)    (FT/S)
W MID LAKE BUOY  0250   45 36  160/  2/  4 1017.0R   0
DEVILS ISLAND    0300   69     150/  3/  3 1016.8R
SAXON HARBOR     0340   60     200/  5/  6 1016.6R
$$

LMZ867-665-643>646-230500-
LAKE MICHIGAN

STATION/POSITION TIME  TEMP    WIND        PRES    WAVE
                       AIR SEA DIR/SP/G            HT/PER
                 (UTC) (F)     (DEG/KT/KT) (MB)    (FT/S)
N MID LAKE BUOY  0340   41 37  180/  4/  4 1017.9R
NORTHPORT PIER   0340   57     200/  2/  4 1017.3R
KEWAUNEE LAKESHO 0324   54     150/  4/  5 1017.1
SHEBOYGAN LAKESH 0300   58     230/  5/  5 1018.2R
PORT WASHINGTON  0330   53     220/  2/  4 1019.6S
ATWATER BUOY     0307   49 48  180/  4/  6 1018.9    0
MILWAUKEE LAKESH 0330   51     150/  1/  2   N/A
KENOSHA   LAKESH 0300   50                 1019.0
$$

TC  - TEMPERATURE IN CELSIUS
VSB - VISIBILITY IN STATUTE MILES
WCI - WIND CHILL INDEX
HX  - HEAT INDEX





USA.gov is the U.S. government's official web portal to all federal, state and local government web resources and services.